#timestamp,LO_Frequency,Hit,StdDev 
1549213215.1,286047000.7,N
1549213235.8,286047000.9,N
1549213255.7,286047000.4,N
1549213275.5,286047000.2,N
1549213295.3,286047000.2,N
1549213315.2,286047000.0,N
1549213335.0,286046998.1,N
1549213335.9,286046998.1,N
1549213355.7,286046999.8,N
1549213375.6,286046999.9,N
1549213395.4,286047002.4,N
1549213415.2,286047002.5,N
1549213435.1,286047001.5,N
1549213436.0,286047001.5,N
1549213455.8,286047002.0,N
1549213475.6,286047002.7,N
1549213495.5,286047000.3,N
1549213515.3,286046999.9,N
1549213535.1,286047000.3,N
1549213555.9,286047001.1,N
1549213575.7,286047001.1,N
1549213595.5,286047000.0,N
1549213615.4,286047002.4,N
1549213635.2,286047002.7,N
1549213655.0,286047002.6,N
1549213655.9,286047002.6,N
1549213675.8,286046999.8,N
1549213695.6,286047000.9,N
1549213715.4,286047000.7,N
1549213735.3,286047001.1,N
1549213755.1,286046998.7,N
1549213775.8,286047000.1,N
1549213795.7,286047001.0,N
1549213815.5,286047000.9,N
1549213835.3,286047002.3,N
1549213855.2,286047000.0,N
1549213875.0,286047000.9,N
1549213875.9,286047000.9,N
1549213895.7,286047002.1,N
1549213915.6,286047000.0,N
1549213935.4,286047001.1,N
1549213955.2,286047001.0,N
1549213975.1,286047001.2,N
1549213976.0,286047001.2,N
1549213995.8,286047002.8,N
1549214015.7,286047002.4,N
1549214035.5,286047000.5,N
1549214055.3,286047000.6,N
1549214075.2,286046998.1,N
1549214095.9,286046998.2,N
1549214115.7,286046998.9,N
1549214135.6,286047000.8,N
1549214155.4,286047001.1,N
1549214175.2,286047000.7,N
1549214195.1,286047000.2,N
1549214196.0,286047000.2,N
1549214215.8,286047000.5,N
1549214235.6,286047002.7,N
1549214255.5,286047000.6,N
1549214275.3,286047000.3,N
1549214295.1,286047001.6,N
1549214315.9,286047001.6,N
1549214335.7,286047002.5,N
1549214355.5,286047000.1,N
1549214375.4,286046999.7,N
1549214395.2,286047000.4,N
1549214415.0,286046999.7,N
1549214415.9,286046999.7,N
1549214435.8,286047002.6,N
1549214455.6,286047001.0,N
1549214475.4,286047002.0,N
1549214495.3,286047000.5,N
1549214515.1,286047000.7,N
1549214516.0,286047000.7,N
1549214535.8,286047000.6,N
1549214555.7,286047001.0,N
1549214575.5,286047000.5,N
1549214595.3,286046999.9,N
1549214615.2,286047000.8,N
1549214635.9,286046998.3,N
1549214655.7,286046998.4,N
1549214675.6,286046998.4,N
1549214695.4,286047000.7,N
1549214715.2,286047000.2,N
1549214735.1,286047002.4,N
1549214736.0,286047002.4,N
1549214755.8,286047000.3,N
1549214775.6,286047002.7,N
1549214795.5,286047002.4,N
1549214815.3,286047002.0,N
1549214835.1,286047002.1,N
1549214855.9,286047001.8,N
1549214875.7,286047002.1,N
1549214895.5,286047000.7,N
1549214915.4,286047001.2,N
1549214935.2,286047000.8,N
1549214955.0,286047002.0,N
1549214955.9,286047002.0,N
1549214975.8,286047001.8,N
1549214995.6,286047001.8,N
1549215015.4,286047002.7,N
1549215035.3,286047002.6,N
1549215055.1,286047002.8,N
1549215056.0,286047002.8,N
1549215075.8,286046998.1,N
1549215095.7,286046999.0,N
1549215115.5,286047000.6,N
1549215135.3,286047002.8,N
1549215155.2,286047002.8,N
1549215175.9,286047001.5,N
1549215195.7,286047002.5,N
1549215215.6,286047001.4,N
1549215235.4,286047002.8,N
1549215255.2,286047002.3,N
1549215275.1,286047002.0,N
1549215276.0,286047002.0,N
1549215295.8,286047001.8,N
1549215315.6,286047001.7,N
1549215335.5,286047003.8,Y
1549215355.3,286047001.4,P
1549215375.1,286047001.3,P
1549215395.9,286047001.9,P
1549215415.7,286047002.0,Y
1549215435.6,286047000.3,P
1549215455.4,286046999.7,N
1549215475.2,286047000.5,N
1549215495.1,286047000.8,N
1549215496.0,286047000.8,N
1549215515.8,286047000.7,N
1549215535.6,286047000.2,N
1549215555.5,286047000.3,N
1549215575.3,286047001.2,N
1549215595.1,286047001.0,N
1549215615.9,286046998.7,N
1549215635.7,286046999.3,N
1549215655.5,286046998.2,N
1549215675.4,286046998.5,N
1549215695.2,286046998.6,N
1549215715.0,286046998.3,N
1549215715.9,286046998.3,N
1549215735.8,286046998.1,N
1549215755.6,286047000.7,N
1549215775.4,286047000.3,N
1549215795.3,286046998.5,N
1549215815.1,286046998.1,N
1549215816.0,286046998.1,N
1549215835.8,286047000.4,N
1549215855.7,286047002.8,N
1549215875.5,286047000.4,N
1549215895.3,286047001.0,N
1549215915.2,286046998.2,N
1549215935.0,286046998.4,N
1549215935.9,286046998.4,N
1549215955.8,286046998.9,N
1549215975.6,286046999.6,N
1549215995.4,286047000.8,N
1549216015.3,286047000.7,N
1549216035.1,286047001.0,N
1549216036.0,286047001.0,N
1549216055.8,286046998.8,N
1549216075.7,286046998.9,N
1549216095.5,286046998.6,N
1549216115.3,286046998.9,N
1549216135.2,286046999.2,N
1549216155.9,286046999.3,N
1549216175.7,286046999.4,N
1549216195.6,286046998.9,N
1549216215.4,286046999.4,N
1549216235.2,286046999.1,N
1549216255.1,286046997.5,N
1549216256.0,286046997.5,N
1549216275.8,286046999.5,N
1549216295.6,286046999.3,N
1549216315.5,286046998.2,N
1549216335.3,286046999.4,N
1549216355.1,286046998.5,N
1549216375.9,286046999.1,N
1549216395.7,286046999.1,N
1549216415.5,286046999.6,N
1549216435.4,286047000.7,N
1549216455.2,286047000.7,N
1549216475.0,286047002.7,N
1549216476.0,286047002.7,N
1549216495.8,286047001.9,N
1549216515.6,286047014.3,Y
1549216535.5,286047024.9,P
1549216655.3,286047009.2,P
1549216675.1,286047004.6,P
1549216695.9,286047003.1,N
1549216715.7,286047003.9,N
1549216735.5,286047002.1,N
1549216755.4,286047002.5,N
1549216775.2,286047002.8,N
1549216795.1,286047000.2,N
1549216796.0,286047000.2,N
